Location: Albany
(35.0170°S, 117.8920°E)
Time: 01:11:42
(UTC+08:00)

Explorer 7 - Pass Details

Date: 31 January 2021
Orbit: 484 x 677 km, 50.3° (Epoch: 01 March)

Event Time Altitude Azimuth Distance (km) Brightness Sun altitude
Rises 17:00:11 0° 234° (SW) 3,039 11.5 26.3°
Reaches altitude 10° 17:04:00 10° 205° (SSW) 2,101 10.3 25.5°
Maximum altitude 17:06:06 13° 179° (S) 1,912 9.7 25.1°
Drops below altitude 10° 17:08:11 10° 153° (SSE) 2,062 9.6 24.7°
Sets 17:11:51 0° 123° (ESE) 2,925 10.1 23.9°
